[[{"header":{"parameterUnit":"m.s-1","parameterCategory":1,"la1":30.2991,"la2":30.254,"lo1":-89.0895,"lo2":-89.0444,"dy":0.0017,"dx":0.0017,"nx":28,"ny":28,"refTime":"2024-05-01T03:00:00:Z","depth":0,"parameterNumber":2,"parameterNumberName":"U-component_of_WINDS"},"data":[0,0,0,0,0,0,0,0,0,0,0,0,0,0,0,0,0,0,0,0,0,0,0,0,0,0,0,0,0,0,0,0,0,0,0,0,0,0,0,0,0,0,0,0,0,0,0,0,0,0,0,0,0,0,0,0,0,0,-1.9387,-1.9387,0,-1.9458,-1.9458,-1.9459,-1.9471,-1.947,-1.9469,-1.9469,-1.9542,-1.9545,-1.9547,0,0,0,0,0,0,0,0,0,0,0,0,0,-1.9263,-1.9265,-1.9387,-1.9388,-1.9388,-1.9457,-1.9458,-1.9459,-1.9471,-1.947,-1.9469,-1.9468,-1.9541,-1.9544,-1.9547,0,0,0,0,0,0,0,0,0,0,0,0,0,-1.9324,-1.9266,-1.9386,-1.9402,-1.9404,-1.9457,-1.9458,-1.946,-1.9471,-1.947,-1.9469,-1.9468,-1.954,-1.9544,-1.9548,-1.959,0,0,-1.9559,-1.9561,0,0,0,0,0,0,0,0,-1.932,-1.9328,-1.9399,-1.9401,-1.9404,-1.9454,-1.9442,-1.9503,-1.9471,-1.9446,-1.9469,-1.9468,-1.9514,-1.952,-1.9535,-1.9593,-1.9597,-1.956,-1.9562,-1.9564,-1.9565,0,0,0,0,0,0,0,-1.9316,-1.9325,-1.9415,-1.94,-1.9403,-1.9407,-1.9414,-1.9453,-1.9484,-1.9448,-1.9449,-1.9457,-1.9515,-1.9531,-1.9537,-1.9598,-1.956,-1.9563,-1.9565,-1.9567,-1.9695,-1.9696,0,0,0,0,0,0,-1.9309,-1.9322,-1.9412,-1.9417,-1.9359,-1.941,-1.9418,-1.9439,-1.9484,-1.949,-1.9458,-1.9457,-1.9525,-1.9532,-1.9539,-1.9592,-1.9564,-1.9567,-1.9569,-1.9694,-1.9695,-1.9697,0,0,0,0,0,0,-1.9306,-1.9317,-1.941,-1.937,-1.9382,-1.9413,-1.9436,-1.9441,-1.9457,-1.9491,-1.9497,-1.9469,-1.9525,-1.9534,-1.9578,-1.9595,-1.9569,-1.9572,-1.9693,-1.9695,-1.9696,-1.9698,0,0,0,0,0,0,-1.9302,-1.9316,-1.9331,-1.937,-1.9384,-1.9446,-1.9437,-1.9443,-1.9464,-1.9464,-1.9503,-1.9509,-1.9525,-1.9572,-1.9581,-1.96,-1.9575,-1.9691,-1.9694,-1.9696,-1.9696,-1.9699,-1.9702,0,0,0,0,0,-1.9298,-1.9329,-1.9332,-1.9343,-1.9404,-1.9447,-1.9455,-1.9473,-1.9465,-1.9482,-1.9504,-1.9507,-1.9592,-1.9576,-1.9587,-1.9607,-1.969,-1.9693,-1.9695,-1.9695,-1.9699,-1.9702,0,0,0,0,0,0,-1.9292,-1.9334,-1.9338,-1.9383,-1.9411,-1.9449,-1.947,-1.9476,-1.9507,-1.9506,-1.9527,-1.9536,-1.9578,-1.9597,-1.9579,-1.965,-1.964,-1.9645,-1.9636,-1.964,-1.9643,-1.9637,-1.9579,0,0,0,0,0,-1.9296,-1.9327,-1.9362,-1.9398,-1.9412,-1.9439,-1.9458,-1.9469,-1.9499,-1.9512,-1.9537,-1.9566,-1.96,-1.9621,-1.9653,-1.9699,-1.9708,-1.9718,-1.9721,-1.9723,-1.9727,-1.9753,-1.9758,-1.9705,-1.9705,-1.9705,0,0,-1.9304,-1.9331,-1.9349,-1.9398,-1.9421,-1.9453,-1.9449,-1.9482,-1.9506,-1.9517,-1.9559,-1.9579,-1.9614,-1.9658,-1.9679,-1.9675,-1.9744,-1.9726,-1.9728,-1.9731,-1.9757,-1.9762,-1.9766,-1.9707,-1.9706,-1.9706,0,0,-1.9336,-1.9359,-1.9392,-1.9415,-1.9451,-1.9468,-1.9476,-1.9513,-1.9527,-1.9569,-1.9578,-1.9608,-1.9664,-1.9689,-1.9708,-1.975,-1.9755,-1.9761,-1.9775,-1.98,-1.9805,-1.9809,-1.9824,-1.9829,-1.9764,-1.9764,-1.9764,0,-1.9342,-1.939,-1.9408,-1.9442,-1.9463,-1.9474,-1.9508,-1.953,-1.9574,-1.9589,-1.9583,-1.9655,-1.9679,-1.973,-1.9741,-1.9756,-1.9767,-1.9756,-1.9803,-1.9807,-1.981,-1.9825,-1.9831,-1.9765,-1.9765,-1.9765,-1.9765,0,-1.9396,-1.9429,-1.9451,-1.9494,-1.9517,-1.9551,-1.9575,-1.9597,-1.9606,-1.9625,-1.9669,-1.9698,-1.9737,-1.975,-1.976,-1.9803,-1.9799,-1.9798,-1.9789,-1.9816,-1.983,-1.9836,-1.9765,-1.9765,-1.9765,-1.9765,0,0,-1.9425,-1.9478,-1.9485,-1.9505,-1.9545,-1.9572,-1.9606,-1.9644,-1.9663,-1.9693,-1.9723,-1.9771,-1.977,-1.9793,-1.9806,-1.9828,-1.986,-1.9824,-1.9825,-1.983,-1.991,-1.9911,-1.9917,-1.9864,-1.9865,-1.9866,-1.9907,0,-1.9462,-1.9523,-1.9541,-1.9592,-1.9624,-1.9635,-1.9665,-1.9693,-1.9712,-1.9741,-1.9762,-1.9796,-1.9792,-1.9806,-1.9828,-1.9851,-1.9876,-1.9848,-1.9892,-1.9893,-1.9883,-1.9924,-1.9925,-1.9963,-1.9913,-1.9914,-1.9915,0,-1.9512,-1.9544,-1.9598,-1.9635,-1.9649,-1.9675,-1.9712,-1.974,-1.9773,-1.9785,-1.981,-1.9821,-1.9858,-1.9847,-1.9899,-1.9879,-1.9898,-1.9912,-1.9914,-1.9919,-1.9905,-1.993,-1.9975,-1.9981,-1.9924,-1.9923,-1.9922,0,-1.9529,-1.9585,-1.9625,-1.9641,-1.9685,-1.9703,-1.9723,-1.9754,-1.9776,-1.9808,-1.9823,-1.9859,-1.9879,-1.9907,-1.9928,-1.9917,-1.9978,-1.9968,-1.9989,-1.9989,-2.0001,-2.0,-2.005,-2.0014,-2.0013,-2.0013,-2.0013,0,-1.9568,-1.9601,-1.9633,-1.9657,-1.9695,-1.9715,-1.9752,-1.9772,-1.9801,-1.983,-1.9842,-1.9869,-1.9895,-1.9926,-1.9942,-1.9983,-1.9992,-2.0003,-2.0007,-2.0002,-2.0001,-2.0015,-2.0013,-2.0015,-2.0015,-2.0014,-2.0014,0,-1.9592,-1.9615,-1.9659,-1.9697,-1.9708,-1.9734,-1.9767,-1.9791,-1.981,-1.9847,-1.9857,-1.9887,-1.9924,-1.9948,-1.9995,-2.0006,-2.0051,-2.0054,-2.004,-2.0042,-2.0062,-2.006,-2.0122,-2.0132,-2.0089,-2.0089,-2.0089,0,-1.9616,-1.9642,-1.9682,-1.9702,-1.9722,-1.9754,-1.9777,-1.9798,-1.9821,-1.986,-1.9881,-1.9919,-1.995,-2.0009,-2.0035,-2.0072,-2.0076,-2.0096,-2.0082,-2.0076,-2.0077,-2.0075,-2.0078,-2.0098,-2.0098,-2.0098,-2.0099,0,-1.9655,-1.9665,-1.9697,-1.9732,-1.9758,-1.9788,-1.9817,-1.9833,-1.9859,-1.9885,-1.9923,-1.9947,-1.9995,-2.0033,-2.0072,-2.0093,-2.0101,-2.0103,-2.011,-2.0105,-2.0096,-2.0101,-2.0046,-2.0101,-2.0101,-2.0101,-2.0101,-2.0101,-1.9681,-1.9704,-1.9736,-1.9771,-1.9795,-1.9822,-1.9848,-1.987,-1.9901,-1.9942,-1.9953,-1.9993,-2.0026,-2.0079,-2.0101,-2.0133,-2.013,-2.014,-2.0142,-2.0145,-2.0145,-2.0091,-2.014,-2.014,-2.014,-2.014,-2.014,0,-1.9721,-1.9742,-1.9774,-1.9814,-1.9842,-1.9846,-1.9879,-1.9902,-1.9937,-1.9966,-1.9997,-2.0041,-2.0078,-2.0107,-2.0146,-2.0166,-2.017,-2.0175,-2.0174,-2.0178,-2.0145,-2.0135,-2.0171,-2.0171,-2.0171,-2.0171,-2.0171,-2.0171,-1.9745,-1.9785,-1.9799,-1.9852,-1.9873,-1.9912,-1.993,-1.9956,-1.998,-2.0028,-2.0058,-2.0077,-2.0107,-2.0148,-2.0182,-2.019,-2.0203,-2.0207,-2.0216,-2.0184,-2.0181,-2.0177,-2.0168,-2.021,-2.021,-2.0247,-2.0247,-2.0247]},{"header":{"parameterUnit":"m.s-1","parameterCategory":1,"la1":30.2991,"la2":30.254,"lo1":-89.0895,"lo2":-89.0444,"dy":0.0017,"dx":0.0017,"nx":28,"ny":28,"refTime":"2024-05-01T03:00:00:Z","depth":0,"parameterNumber":3,"parameterNumberName":"V-component_of_WINDS"},"data":[0,0,0,0,0,0,0,0,0,0,0,0,0,0,0,0,0,0,0,0,0,0,0,0,0,0,0,0,0,0,0,0,0,0,0,0,0,0,0,0,0,0,0,0,0,0,0,0,0,0,0,0,0,0,0,0,0,0,4.8169,4.817,0,4.8191,4.8191,4.8192,4.8133,4.8131,4.813,4.8128,4.8147,4.8149,4.8151,0,0,0,0,0,0,0,0,0,0,0,0,0,4.8074,4.8077,4.8169,4.817,4.817,4.8191,4.8191,4.8192,4.8134,4.8131,4.8129,4.8127,4.8146,4.8149,4.8152,0,0,0,0,0,0,0,0,0,0,0,0,0,4.8108,4.8077,4.8169,4.8144,4.8141,4.8191,4.8191,4.8192,4.8134,4.8131,4.8129,4.8126,4.8146,4.8149,4.8152,4.8227,0,0,4.8162,4.8164,0,0,0,0,0,0,0,0,4.8106,4.8111,4.8147,4.8145,4.8143,4.8157,4.8165,4.8203,4.8135,4.8137,4.8128,4.8125,4.8152,4.8155,4.8165,4.8228,4.8228,4.8162,4.8164,4.8166,4.8167,0,0,0,0,0,0,0,4.8104,4.811,4.8178,4.8148,4.8145,4.813,4.8132,4.8172,4.8159,4.8136,4.8132,4.8136,4.8151,4.8162,4.8165,4.8229,4.8162,4.8165,4.8167,4.8169,4.8354,4.8357,0,0,0,0,0,0,4.8105,4.8109,4.8177,4.8179,4.8118,4.8134,4.8136,4.8155,4.8159,4.8157,4.8138,4.8133,4.8158,4.8161,4.8165,4.8253,4.8166,4.8169,4.8171,4.8351,4.8355,4.8358,0,0,0,0,0,0,4.8103,4.8112,4.8176,4.8143,4.815,4.8138,4.8161,4.8157,4.8168,4.816,4.8157,4.8152,4.8156,4.8161,4.8212,4.8253,4.817,4.8173,4.8347,4.8352,4.8356,4.8429,0,0,0,0,0,0,4.8101,4.8112,4.8141,4.8144,4.8152,4.8224,4.8163,4.8159,4.8174,4.8168,4.8172,4.817,4.8154,4.8208,4.8215,4.8256,4.8176,4.8344,4.835,4.8355,4.8423,4.8436,4.8446,0,0,0,0,0,4.8098,4.816,4.8142,4.8151,4.8188,4.8226,4.8231,4.8211,4.8178,4.8206,4.8201,4.817,4.8247,4.8213,4.8222,4.8264,4.8341,4.8348,4.8354,4.8418,4.8433,4.8446,0,0,0,0,0,0,4.816,4.816,4.814,4.8205,4.8217,4.8216,4.8252,4.8228,4.8248,4.8241,4.8215,4.8216,4.8273,4.8273,4.8235,4.8336,4.8288,4.8297,4.8334,4.8348,4.836,4.8358,4.8179,0,0,0,0,0,4.8182,4.8214,4.8211,4.8269,4.8276,4.8263,4.8279,4.8263,4.8273,4.8277,4.8276,4.8286,4.8313,4.833,4.8354,4.8423,4.8423,4.8456,4.8468,4.8477,4.8485,4.8521,4.8536,4.8379,4.8379,4.8379,0,0,4.8226,4.823,4.8252,4.8282,4.8288,4.8322,4.8267,4.8305,4.8329,4.8283,4.8331,4.8331,4.834,4.8401,4.8428,4.8403,4.8528,4.8486,4.8494,4.8496,4.853,4.8545,4.8558,4.8384,4.8383,4.8382,0,0,4.8324,4.8331,4.8379,4.8388,4.8399,4.839,4.8402,4.8406,4.8404,4.8453,4.8419,4.8447,4.8493,4.8501,4.8512,4.8614,4.8586,4.8622,4.8683,4.8718,4.8731,4.8742,4.8778,4.8791,4.863,4.863,4.863,0,4.8378,4.8428,4.8407,4.8447,4.8461,4.8422,4.8471,4.8479,4.8498,4.8508,4.8481,4.8538,4.8542,4.8604,4.8629,4.8638,4.8651,4.8621,4.8731,4.8742,4.8751,4.8786,4.8799,4.8634,4.8634,4.8634,4.8633,0,4.8493,4.8528,4.8566,4.8586,4.8604,4.8648,4.8633,4.8654,4.8637,4.8631,4.8681,4.8684,4.8708,4.8722,4.8704,4.8781,4.8766,4.8736,4.8687,4.8771,4.8803,4.8816,4.8641,4.8639,4.8638,4.8637,0,0,4.863,4.8639,4.8653,4.8662,4.8672,4.8699,4.8741,4.8765,4.8784,4.8797,4.8832,4.8872,4.8844,4.8856,4.8839,4.8871,4.8952,4.8836,4.8836,4.8858,4.9036,4.9059,4.9075,4.8934,4.8936,4.8938,4.9036,0,4.8727,4.8801,4.8784,4.8856,4.8888,4.8852,4.8889,4.8898,4.8894,4.892,4.8914,4.8943,4.8904,4.8911,4.8941,4.8936,4.8987,4.8928,4.8965,4.8966,4.8963,4.9092,4.9116,4.9208,4.9048,4.905,4.9051,0,4.885,4.887,4.8946,4.8952,4.8964,4.8998,4.9019,4.9045,4.9055,4.9049,4.9063,4.904,4.9081,4.9033,4.9088,4.9049,4.9063,4.9062,4.9065,4.9068,4.9014,4.9097,4.9237,4.9251,4.9071,4.9069,4.9068,0,4.8943,4.8989,4.904,4.9049,4.9056,4.9081,4.9085,4.9092,4.9108,4.9127,4.9137,4.9159,4.9171,4.9189,4.9173,4.9139,4.9231,4.9181,4.9227,4.9228,4.9248,4.9247,4.9392,4.9257,4.9257,4.9257,4.9257,0,4.9053,4.9101,4.9082,4.9114,4.9167,4.9146,4.9198,4.9198,4.9205,4.9235,4.9205,4.9234,4.9211,4.9237,4.9225,4.9273,4.9279,4.9275,4.9271,4.9278,4.9278,4.9286,4.9279,4.926,4.926,4.9259,4.9258,0,4.9165,4.9155,4.9209,4.9212,4.9214,4.9252,4.9254,4.9283,4.9277,4.9316,4.9324,4.9313,4.9343,4.9329,4.936,4.9351,4.9413,4.9401,4.9411,4.9407,4.9454,4.945,4.9609,4.9629,4.9482,4.9483,4.9485,0,4.9236,4.9273,4.928,4.9299,4.9305,4.9336,4.9352,4.9333,4.9351,4.9366,4.9393,4.942,4.9441,4.9491,4.9485,4.9509,4.9497,4.9551,4.95,4.9506,4.9497,4.9495,4.9499,4.9561,4.9563,4.9564,4.9565,0,4.9363,4.9357,4.9382,4.9406,4.9427,4.9445,4.946,4.9476,4.9458,4.948,4.9511,4.9527,4.9559,4.9587,4.9607,4.961,4.9585,4.9581,4.9593,4.96,4.9604,4.9603,4.9438,4.9578,4.9576,4.9575,4.9575,4.9574,4.9457,4.9488,4.9498,4.9527,4.9537,4.9552,4.9579,4.9577,4.9603,4.9628,4.9615,4.9651,4.9659,4.9685,4.9691,4.9718,4.9697,4.9714,4.9718,4.9723,4.9729,4.96,4.9722,4.9722,4.9721,4.9721,4.9721,0,4.9582,4.9587,4.9615,4.9637,4.9661,4.9636,4.9651,4.9671,4.9704,4.9715,4.9736,4.9772,4.9798,4.9796,4.982,4.9842,4.9831,4.9849,4.9847,4.9848,4.9747,4.9735,4.9858,4.9858,4.9858,4.9858,4.9858,4.9858,4.9651,4.9701,4.9696,4.9751,4.9755,4.9791,4.9801,4.9815,4.9823,4.9865,4.9887,4.9885,4.9891,4.9915,4.9938,4.9936,4.9947,4.9969,4.9963,4.9869,4.9855,4.9842,4.983,4.9972,4.9972,5.0062,5.0063,5.0064]}]]